Flag for Poland Weather past 2 weeks in Wroclaw, Poland

Now
46 °F

Light rain. Partly sunny.


Feels Like: 39 °F
Forecast: 39 / 57 °F
Wind: 18 mph from Northwest

Location: Wroclaw Ii

Current Time: Apr 28, 2015 at 4:52:27 PM

Latest Report: Apr 28, 2015 at 4:00 PM


Visibility: N/A

Pressure: 29.80 "Hg

Humidity: 87%

Dew point: 43 °F

Location of WroclawLocation

Historic Weather in Wroclaw — Graph

°F

Wroclaw temperature yesterday

Maximum temperature yesterday: 79 °F (at 3:30 PM)
Minimum temperature yesterday: 45 °F (at 3:00 AM)
Average temperature yesterday: 62 °F

Past Weeks' High & Low Weather Summary

 TemperatureHumidityPressure
High79 °F (Apr 27, 3:30 PM)94% (Apr 26, 6:30 AM)30.33 "Hg (Apr 26, 6:30 AM)
Low32 °F (Apr 19, 5:30 AM)20% (Apr 21, 3:00 PM)29.53 "Hg (Apr 27, 5:30 PM)
Average54 °F59%29.99 "Hg
* Reported Apr 13 4:00 PM — Apr 28 4:00 PM, Wroclaw, Weather by CustomWeather, © 2015

Note: Actual official high and low records may vary slightly from our data, if they occured in-between our weather recording intervals... More about our weather records

Advertising

Wroclaw weather history for previous 24 hours

 ConditionsComfort  
Time TempWeatherWind HumidityBarometerVisibility
4:00 PM
Tue, Apr 28
46 °FLight rain. Partly sunny.18 mph87%29.80 "HgN/A
3:30 PM46 °FLight rain. Partly sunny.15 mph87%29.80 "Hg5 mi
3:00 PM46 °FLight rain. Partly sunny.16 mph93%29.77 "Hg5 mi
2:30 PM48 °FBroken clouds.17 mph87%29.77 "HgN/A
2:00 PM48 °FLight rain. Partly sunny.17 mph87%29.77 "Hg5 mi
1:30 PM48 °FLight rain. Partly sunny.14 mph94%29.74 "HgN/A
1:00 PM50 °FDrizzle. Partly sunny.14 mph88%29.74 "Hg5 mi
12:30 PM50 °FDrizzle. Fog.14 mph88%29.74 "Hg2 mi
12:00 PM50 °FDrizzle. Fog.12 mph88%29.74 "Hg2 mi
11:30 AM50 °FDrizzle. Fog.13 mph88%29.71 "Hg2 mi
11:00 AM50 °FDrizzle. Fog.9 mph88%29.71 "Hg2 mi
10:30 AM50 °FDrizzle. Fog.12 mph94%29.71 "Hg2 mi
10:00 AM50 °FDrizzle. Fog.12 mph94%29.68 "Hg2 mi
9:30 AM50 °FDrizzle. Fog.10 mph88%29.68 "Hg1 mi
9:00 AM50 °FDrizzle. Fog.12 mph88%29.68 "Hg1 mi
8:30 AM50 °FDrizzle. Fog.12 mph88%29.68 "Hg1 mi
8:00 AM50 °FFog.10 mph94%29.65 "Hg2 mi
7:30 AM50 °FDrizzle. Fog.10 mph94%29.65 "Hg1 mi
7:00 AM52 °FDrizzle. Fog.13 mph88%29.62 "Hg1 mi
6:30 AM52 °FLight rain. Fog.12 mph88%29.62 "Hg1 mi
6:00 AM52 °FFog.14 mph88%29.62 "Hg1 mi
5:30 AM54 °FLight rain. Mostly cloudy.12 mph88%29.62 "Hg4 mi
5:00 AM54 °FLight rain. Mostly cloudy.10 mph88%29.62 "Hg4 mi
4:30 AM54 °FLight rain. Low clouds.13 mph88%29.59 "HgN/A
4:00 AM55 °FLight rain. Passing clouds.8 mph88%29.59 "HgN/A
3:30 AM55 °FPassing clouds.10 mph88%29.59 "HgN/A
3:00 AM57 °FPassing clouds.7 mph88%29.59 "Hg5 mi
2:30 AM57 °FPassing clouds.8 mph88%29.59 "Hg5 mi
2:00 AM57 °FPassing clouds.9 mph88%29.59 "Hg5 mi
1:30 AM57 °FPassing clouds.14 mph88%29.59 "HgN/A
1:00 AM57 °FPassing clouds.8 mph94%29.59 "HgN/A
12:30 AM57 °FPassing clouds.9 mph88%29.56 "HgN/A
12:00 AM59 °FSprinkles. Passing clouds.13 mph88%29.56 "HgN/A
11:30 PM
Mon, Apr 27
63 °FPassing clouds.10 mph77%29.56 "HgN/A
11:00 PM63 °FPassing clouds.2 mph83%29.53 "HgN/A
10:30 PM63 °FPassing clouds.3 mph68%29.53 "HgN/A
10:00 PM64 °FClear.5 mph64%29.53 "Hg10 mi
9:30 PM64 °FClear.3 mph64%29.53 "Hg10 mi
9:00 PM64 °FSunny.3 mph64%29.53 "Hg10 mi
8:30 PM68 °FSunny.3 mph53%29.53 "Hg10 mi
8:00 PM70 °FPassing clouds.6 mph50%29.53 "HgN/A
7:30 PM72 °FPassing clouds.6 mph47%29.53 "HgN/A
7:00 PM72 °FSunny.8 mph44%29.53 "Hg10 mi
6:30 PM73 °FThundershowers. Passing clouds.9 mph44%29.53 "HgN/A
6:00 PM75 °FThundershowers. Passing clouds.12 mph39%29.53 "HgN/A
5:30 PM77 °FPassing clouds.14 mph39%29.53 "HgN/A
5:00 PM77 °FPassing clouds.12 mph42%29.56 "HgN/A
4:30 PM79 °FPassing clouds.8 mph32%29.56 "HgN/A
4:00 PM79 °FPassing clouds.9 mph37%29.56 "HgN/A
Weather by CustomWeather, © 2015

See weather overviewHow to use our weather pages